Location: Wellingtonbridge
(52.2633°N, 6.7783°W)
Time: 00:05:38
(UTC+00:00)

Daily predictions for brighter satellites

Satellite Brightness Start Highest point End
(mag) Time Altitude Azimuth Time Altitude Azimuth Time Altitude Azimuth
ACS3 Solar Sail 4.4 02:02:31 10° ENE 02:03:45 11° ENE 02:03:45 11° ENE
USA 267 4.3 03:15:21 10° ENE 03:20:18 36° ESE 03:20:18 36° ESE
Cosmos 1980 Rocket 4.4 03:27:56 18° NNE 03:27:56 18° NNE 03:29:30 10° NNE
Cosmos 2278 Rocket 4.0 03:29:48 25° NNE 03:30:29 25° NE 03:35:07 10° E
USA 238 DEB 4.4 03:33:04 48° NE 03:33:04 48° NE 03:37:56 10° NE
USA 238 4.3 03:33:10 48° NE 03:33:10 48° NE 03:38:02 10° NE
H-2A R/B 4.2 03:26:29 10° NNE 03:28:05 20° NNE 03:28:05 20° NNE
Cosmos 2333 Rocket 3.5 03:39:31 35° NE 03:39:31 35° NE 03:42:49 10° NE
COSMOS 2455 3.7 03:45:06 47° ENE 03:45:06 47° ENE 03:49:30 10° NE
ADEOS II 4.2 03:38:26 10° NNE 03:39:55 19° NNE 03:39:55 19° NNE
ACS3 Solar Sail 2.3 03:42:50 10° NNE 03:47:53 54° ENE 03:47:53 54° ENE
Resurs 1-4 Rocket 4.3 03:47:07 10° N 03:48:13 16° N 03:48:13 16° N
CENTAUR R/B 3.9 03:52:18 34° NNW 03:53:25 36° N 04:01:07 10° ENE
Cosmos 2360 Rocket 3.0 03:59:09 48° NE 03:59:09 48° NE 04:03:12 10° NNE
Cosmos 2322 Rocket 3.0 03:59:31 45° NE 03:59:31 45° NE 04:03:25 10° NNE
USA 234 3.5 03:53:42 10° SE 03:58:53 57° SSE 03:58:53 57° SSE
SL-16 R/B 3.4 04:06:02 35° N 04:06:02 35° N 04:09:22 10° NNE
Cosmos 1943 Rocket 3.4 04:06:17 31° N 04:07:53 38° NE 04:13:00 10° ESE
ARGOS 3.8 04:09:21 10° NNE 04:14:40 51° E 04:16:17 39° SSE
Cosmos 1140 Rocket 4.2 04:15:55 48° NE 04:16:21 49° ENE 04:21:19 10° SE
CZ-2C R/B 3.3 04:15:10 10° NNE 04:20:01 48° E 04:21:33 36° SSE
ADEOS Rocket 3.1 04:18:45 10° NNE 04:25:11 77° WNW 04:25:40 74° WSW
NOSS 3-1 (C) 4.4 04:27:25 27° SSE 04:29:01 33° ESE 04:34:00 10° NE
SJ 16-02 4.1 04:27:47 10° NNE 04:29:54 13° NE 04:32:00 10° ENE
Cosmos 2100 Rocket 4.3 04:24:36 10° N 04:30:43 63° ENE 04:36:49 10° SSE
NOSS 3-2 (C) 4.4 04:30:56 34° NNW 04:31:18 34° NNW 04:37:36 10° NE
Cosmos 2219 Rocket 2.1 04:36:50 81° SSW 04:37:09 88° ESE 04:42:52 10° NNE
SL-24 R/B - RUBIN 2 4.1 04:39:23 65° SSE 04:39:48 69° SE 04:44:41 10° NE
Cosmos 1707 Rocket 4.2 04:42:43 48° NNE 04:42:43 48° NNE 04:45:59 10° NNE
COSMOS 2428 3.7 04:41:52 10° S 04:47:14 44° ESE 04:52:37 10° NE
USA 59 Rocket 1.2 04:50:48 28° ESE 04:50:48 28° ESE 04:52:53 10° ENE
SL-08 RB Rocket 3.9 04:47:06 10° NNE 04:51:41 70° ESE 04:53:29 36° S
Cosmos 1459 Rocket 4.1 04:45:35 10° N 04:52:00 79° E 04:58:20 10° SSE
IRS P6 4.5 04:48:20 10° NNE 04:53:44 88° WNW 04:55:46 39° SSW
Cosmos 2322 4.3 04:50:01 15° S 04:54:37 57° ESE 05:00:10 10° NE
CZ-2D R/B 4.1 04:54:19 10° N 04:55:38 15° NNW 04:55:38 15° NNW
Cosmos 407 Rocket 4.0 04:54:47 19° NNW 04:58:21 57° ENE 05:03:23 10° SE
Cosmos 1023 Rocket 4.2 04:58:46 62° NW 04:59:33 78° WSW 05:04:36 10° SSE
COSMO-SKYMED 1 4.0 04:56:29 10° SE 05:00:13 34° ENE 05:03:59 10° N
SKYMED 2 4.5 04:57:18 10° SE 05:01:28 48° ENE 05:05:40 10° N
Cosmos 1725 Rocket 4.3 04:56:04 10° N 05:02:24 67° ENE 05:08:41 10° SSE
Cosmos 1727 Rocket 3.8 04:56:21 10° S 05:02:33 84° W 05:08:50 10° N
Cosmos 2228 Rocket 2.9 05:03:28 80° SW 05:03:38 83° W 05:08:05 10° N
Cosmos 2333 4.3 05:03:20 52° WNW 05:03:46 53° NW 05:09:27 10° NNE
Cosmos 2150 Rocket 3.9 05:03:46 59° WNW 05:03:57 60° WNW 05:09:12 10° NNE
USA 267 3.2 04:58:20 10° ENE 05:04:55 90° NNW 05:07:39 39° WSW
Cosmos 1980 Rocket 4.1 05:09:40 14° NNW 05:10:03 14° NNW 05:13:03 10° NNE
Cosmos 1802 Rocket 4.1 05:03:54 10° N 05:10:20 82° ENE 05:16:39 10° SSE
H-2A R/B 3.3 05:06:05 10° N 05:08:34 24° NNW 05:08:34 24° NNW
Cosmos 1269 Rocket 3.9 05:09:27 49° WNW 05:10:35 62° WSW 05:15:47 10° S
Cosmos 2278 Rocket 2.1 05:11:40 23° NNW 05:15:19 90° ESE 05:20:59 10° SSE
Cosmos 1328 3.9 05:13:11 10° S 05:16:46 63° E 05:20:25 10° NNE
Cosmos 2251 Rocket 4.4 05:11:55 10° NNW 05:17:08 50° ENE 05:22:20 10° SE
Cosmos 1703 Rocket 4.1 05:13:56 10° S 05:18:13 60° E 05:22:33 10° NNE
NOSS 2-1 (E) 3.8 05:18:52 32° S 05:19:57 44° SE 05:22:55 10° ENE
Lacrosse 5 rocket 1.6 05:20:39 42° N 05:20:39 42° N 05:23:33 10° ENE
Cosmos 1939 Rocket 2.6 05:17:09 10° NNE 05:21:01 89° WNW 05:23:41 19° SSW
Cosmos 2173 Rocket 3.8 05:15:19 10° NNW 05:21:21 64° W 05:27:20 10° S
Cosmos 2333 Rocket 3.1 05:21:32 30° NW 05:21:54 30° NW 05:26:57 10° NNE
USA-17 4.4 05:22:08 63° NNE 05:22:13 64° NE 05:25:25 10° SE
ADEOS II 3.9 05:19:01 10° N 05:20:43 16° NNW 05:20:43 16° NNW
USA 238 DEB 4.3 05:20:30 31° WNW 05:22:44 39° NNW 05:29:25 10° NE
USA 238 4.3 05:20:36 31° WNW 05:22:49 39° NNW 05:29:31 10° NE
Cosmos 2237 Rocket 3.7 05:18:13 10° S 05:23:22 37° ESE 05:28:31 10° NE
BlueWalker 3 3.2 05:27:40 26° SSW 05:27:40 26° SSW 05:30:07 10° SSE
Cosmos 2298 Rocket 4.4 05:27:27 39° W 05:28:27 43° NW 05:33:32 10° NNE
COSMOS 2455 3.5 05:28:15 33° WNW 05:29:49 38° NW 05:35:28 10° NNE
Resurs 1-4 Rocket 4.2 05:28:45 10° NNW 05:29:15 11° NNW 05:29:15 11° NNW
ACS3 Solar Sail 2.4 05:26:19 10° N 05:31:29 31° WNW 05:32:02 31° WNW
Cosmos 2369 Rocket 3.9 05:27:43 10° NNW 05:32:38 29° NE 05:37:34 10° E
Meteor 1-24 Rocket 3.7 05:27:31 10° S 05:33:17 85° ESE 05:38:53 10° NNE
Helios 1A Rocket 2.3 05:31:07 10° SSE 05:34:31 86° WSW 05:36:22 25° NNW
CZ-4 R/B 4.2 05:30:36 10° NNE 05:35:31 68° ESE 05:40:20 10° S
Cosmos 1782 Rocket 3.6 05:32:29 10° N 05:36:56 78° E 05:41:18 10° SSE
Cosmos 1000 Rocket 4.5 05:31:29 10° SSW 05:37:44 63° WNW 05:44:02 10° N
Cosmos 1461 4.4 05:39:00 19° NNW 05:39:03 19° NNW 05:42:00 10° NNE
Cosmos 2360 Rocket 3.1 05:40:54 27° WNW 05:42:04 29° NW 05:46:59 10° NNE
Cosmos 2322 Rocket 3.2 05:41:21 25° WNW 05:42:25 27° NW 05:47:14 10° NNE
SJ-11-01 4.2 05:37:54 10° NNE 05:42:36 82° WNW 05:47:18 10° SSW
USA 234 4.2 05:38:29 10° S 05:44:00 28° SW 05:46:13 24° W
Cosmos 2123 Rocket 3.9 05:37:49 10° SSW 05:44:03 78° WNW 05:50:17 10° N
Meteor 2-5 Rocket 3.8 05:38:31 10° SSW 05:44:27 88° WNW 05:50:20 10° NNE
Gbstr 26 Del rocket 4.0 05:41:19 20° SW 05:44:45 58° SSE 05:50:46 10° ENE
NOAA 12 4.4 05:39:27 10° NNE 05:44:49 73° ESE 05:50:08 10° S
Cosmos 44 Rocket 4.1 05:43:41 30° W 05:44:49 34° WSW 05:49:25 10° S
CENTAUR R/B 3.7 05:39:24 15° NW 05:45:45 53° NNE 05:54:35 10° ESE
H-2A R/B 3.7 05:42:49 10° N 05:46:22 36° WNW 05:46:34 36° WNW
SL-16 R/B 3.6 05:47:53 18° NW 05:49:01 19° NNW 05:53:04 10° NNE
Okean 1-7 3.7 05:49:34 31° WNW 05:49:35 31° WNW 05:53:23 10° N
Cosmos 1943 Rocket 2.3 05:47:50 18° NW 05:51:48 50° WSW 05:57:04 10° S
Cosmos 2016 Rocket 4.0 05:46:21 10° NNW 05:52:39 64° W 05:58:54 10° S
Cosmos 1908 Rocket 3.9 05:48:29 10° NNW 05:52:40 41° W 05:56:49 10° SSW
ARGOS 3.8 05:49:57 10° N 05:54:42 32° WNW 05:57:45 19° WSW
Cosmos 1812 4.2 05:53:16 10° N 05:55:51 27° ENE 05:58:25 10° SE
Cosmos 1300 Rocket 3.5 05:53:07 10° NNW 05:57:25 61° W 06:01:40 10° S
Cosmos 1140 Rocket 4.2 05:55:55 23° WNW 05:57:51 30° WSW 06:02:15 10° SSW
CZ-2C R/B 3.2 05:53:33 10° N 05:57:53 31° WNW 06:00:45 18° WSW
Cosmos 374 Rocket 4.5 05:57:13 10° SW 06:01:01 77° SE 06:05:28 10° NE
Meteor 2-21 Rocket 4.4 05:55:19 10° SSW 06:01:23 62° WNW 06:07:26 10° N
NOSS 2-1 (C) 2.6 06:00:52 25° WSW 06:02:34 63° NW 06:05:32 10° NE
NOSS 2-1 (D) 2.8 06:04:54 24° WSW 06:06:34 54° NW 06:09:29 10° NE
SJ 16-02 1.6 06:04:35 10° NNW 06:08:55 68° ENE 06:13:10 10° SSE
ADEOS Rocket 4.4 06:05:20 10° N 06:09:53 21° NW 06:12:35 17° W
Aureole 3 Rocket 3.6 06:06:10 10° N 06:10:13 70° E 06:15:48 10° SSE
Iridium 4 Rocket 3.3 06:06:08 10° NNW 06:10:18 42° W 06:14:15 10° SSW
Cosmos 2061 Rocket 3.9 06:06:53 10° NNW 06:13:03 66° W 06:19:09 10° S
Cosmos 1190 Rocket 4.0 06:13:05 10° NNW 06:18:23 73° WSW 06:23:35 10° SSE
IRS-1D 3.6 06:14:25 10° N 06:19:16 52° WNW 06:24:03 10° SW
NOSS 3-1 (C) 3.2 06:14:47 12° WSW 06:19:21 58° NW 06:25:27 10° NE
Cosmos 676 Rocket 4.2 06:14:04 10° NNW 06:19:23 77° ENE 06:24:35 10° SSE
Cosmos 1869 2.8 06:17:31 10° NNW 06:21:02 81° W 06:24:31 10° S
SL-16 R/B 4.2 06:16:42 10° SSE 06:21:40 32° ESE 06:26:40 10° NE
Cosmos 2219 Rocket 3.3 06:18:34 16° W 06:21:50 26° NW 06:26:33 10° NNE
Cosmos 2056 Rocket 4.5 06:21:13 10° S 06:26:27 54° ESE 06:31:43 10° NNE
Okean 2 Rocket 4.3 06:23:58 10° N 06:28:10 43° ENE 06:32:19 10° SE
Cosmos 371 Rocket 3.3 06:24:42 10° NNW 06:29:35 88° WSW 06:34:26 10° SSE
NOSS 0 Rocket 3.9 06:23:55 10° SW 06:30:01 65° NW 06:36:10 10° NNE
COSMOS 2428 3.1 06:26:06 10° WSW 06:31:31 43° NW 06:36:57 10° NNE
COSMO-SKYMED 1 3.3 06:31:58 10° SSW 06:35:35 30° W 06:39:15 10° NNW
Cosmos 1484 Rocket 2.4 06:32:03 10° N 06:35:37 71° WNW 06:39:08 10° SSW
Cosmos 1954 Rocket 4.0 06:31:17 10° NNW 06:36:28 64° WSW 06:41:33 10° S
USA 59 Rocket 0.1 06:36:33 13° W 06:38:54 28° NNW 06:41:31 10° NNE
Cosmos 2322 4.3 06:33:52 10° WSW 06:39:03 36° NW 06:44:16 10° NNE
Thor Agena Rocket 4.2 06:34:03 10° NNE 06:39:17 64° ESE 06:44:25 10° S
Cosmos 407 Rocket 4.5 06:35:46 10° NW 06:39:54 25° W 06:44:02 10° SSW
Aureole 3 4.3 06:37:48 10° SSW 06:44:09 74° WNW 06:49:36 10° N
Cosmos 1371 Rocket 4.4 06:39:37 10° SSW 06:44:52 70° ESE 06:50:11 10° NNE
USA 267 3.5 06:41:21 10° ENE 06:47:47 61° N 06:54:11 10° W
Cosmos 1400 Rocket 2.8 06:45:20 10° N 06:49:07 78° ENE 06:52:49 10° SSE
Cosmos 1980 3.8 06:45:23 10° SW 06:50:57 58° NW 06:56:34 10° NNE
NOSS 3-2 (A) 4.5 06:44:34 10° NW 06:51:11 54° NNE 06:59:19 10° ESE
Lacrosse 4 Rocket 3.5 06:50:28 10° NNW 06:53:22 19° NNE 06:56:14 10° ENE
SAR-Lupe-4 4.2 06:50:06 10° NNE 06:53:40 62° ESE 06:57:10 10° S
Cosmos 1656 Rocket 3.8 06:49:15 10° NW 06:54:51 62° WSW 07:00:26 10° SSE
Cosmos 1980 Rocket 4.3 06:54:38 10° NNW 06:56:43 12° N 06:58:46 10° NNE
Cosmos 304 Rocket 4.0 06:52:59 10° NNW 06:57:36 51° WSW 07:02:12 10° S
Lacrosse 5 rocket 1.7 06:54:36 10° WNW 06:57:49 37° N 07:00:57 10° ENE
Cosmos 2297 3.8 06:52:23 10° NNW 06:58:05 82° ENE 07:03:44 10° SSE
Cosmos 2278 Rocket 3.6 06:54:52 10° WNW 06:58:37 18° W 07:02:21 10° SW
Cosmos 2251 Rocket 4.3 06:54:27 10° NW 06:59:09 32° WSW 07:03:51 10° SSW
IGS 5A 3.4 06:56:30 10° N 07:00:30 62° WNW 07:04:27 10° SSW
Cosmos 1464 Rocket 4.0 06:54:31 10° NNW 07:00:45 82° W 07:06:53 10° S
